When you browse on this site, cookies collect data to enhance your experience and personalize the content and advertising you see.
Visit our Privacy Policy to learn more. By continuing to use the site, you agree to this use of cookies and data.
  • In United Kingdom
  • List of Countries
  • For 7 days
  • Water Temperature
  • Weather Map
  • Weather Widgets
  • user-avatar
    Login

    Hourly Weather Naftalan

    Today, 26 May, Tuesday

    Time Temperature Precipitation Wind Pressure Humidity
    00:00 +16°C° 0 mm 2 mps 762 mmHg 74%
    01:00 +16°C° 0 mm 2 mps 762 mmHg 75%
    02:00 +14°C° 0 mm 3 mps 762 mmHg 76%
    03:00 +14°C° 0 mm 4 mps 763 mmHg 77%
    04:00 +15°C° 0 mm 5 mps 763 mmHg 72%
    05:00 +16°C° 0 mm 6 mps 763 mmHg 66%
    06:00 +17°C° 0 mm 7 mps 763 mmHg 61%
    07:00 +20°C° 0 mm 7 mps 764 mmHg 57%
    08:00 +22°C° 0 mm 7 mps 764 mmHg 52%
    09:00 +24°C° 0 mm 6 mps 764 mmHg 47%
    10:00 +26°C° 0 mm 6 mps 764 mmHg 45%
    11:00 +27°C° 0 mm 6 mps 765 mmHg 42%
    12:00 +28°C° 0 mm 5 mps 765 mmHg 40%
    13:00 +27°C° 0 mm 6 mps 765 mmHg 44%
    14:00 +26°C° 0 mm 6 mps 765 mmHg 47%
    15:00 +23°C° 0 mm 6 mps 765 mmHg 51%
    16:00 +23°C° 0 mm 6 mps 766 mmHg 53%
    17:00 +22°C° 0 mm 5 mps 766 mmHg 54%
    18:00 +21°C° 0 mm 4 mps 767 mmHg 56%
    19:00 +21°C° 0 mm 4 mps 767 mmHg 59%
    20:00 +20°C° 0 mm 3 mps 767 mmHg 62%
    21:00 +19°C° 0 mm 3 mps 768 mmHg 66%
    22:00 +19°C° 0 mm 3 mps 768 mmHg 66%
    23:00 +19°C° 0 mm 2 mps 768 mmHg 65%

    Tomorrow, 27 May, Wednesday

    Time Temperature Precipitation Wind Pressure Humidity
    00:00 +19°C° 0 mm 2 mps 768 mmHg 65%
    01:00 +19°C° 0 mm 2 mps 768 mmHg 66%
    02:00 +18°C° 0 mm 2 mps 767 mmHg 66%
    03:00 +18°C° 0 mm 2 mps 767 mmHg 67%
    04:00 +20°C° 0 mm 1 mps 768 mmHg 64%
    05:00 +21°C° 0 mm 1 mps 768 mmHg 61%
    06:00 +20°C° 0 mm 0 mps 768 mmHg 59%
    07:00 +23°C° 0 mm 1 mps 768 mmHg 54%
    08:00 +24°C° 0 mm 1 mps 768 mmHg 50%
    09:00 +25°C° 0 mm 1 mps 768 mmHg 46%
    10:00 +26°C° 0 mm 2 mps 768 mmHg 44%
    11:00 +26°C° 0 mm 2 mps 767 mmHg 42%
    12:00 +27°C° 0 mm 3 mps 767 mmHg 40%
    13:00 +27°C° 0 mm 3 mps 767 mmHg 42%
    14:00 +27°C° 0 mm 4 mps 766 mmHg 43%
    15:00 +27°C° 0 mm 4 mps 766 mmHg 44%
    16:00 +26°C° 0 mm 5 mps 766 mmHg 49%
    17:00 +23°C° 0 mm 5 mps 765 mmHg 54%
    18:00 +22°C° 0 mm 5 mps 765 mmHg 60%
    19:00 +22°C° 0 mm 4 mps 765 mmHg 63%
    20:00 +21°C° 0 mm 4 mps 766 mmHg 67%
    21:00 +20°C° 0 mm 3 mps 766 mmHg 71%
    22:00 +20°C° 0 mm 3 mps 766 mmHg 72%
    23:00 +20°C° 0 mm 3 mps 765 mmHg 73%

    Day after tomorrow, 28 May, Thursday

    Time Temperature Precipitation Wind Pressure Humidity
    00:00 +19°C° 0 mm 3 mps 765 mmHg 75%
    01:00 +19°C° 0 mm 2 mps 765 mmHg 76%
    02:00 +19°C° 0 mm 2 mps 764 mmHg 78%
    03:00 +19°C° 0 mm 1 mps 764 mmHg 79%
    04:00 +19°C° 0 mm 2 mps 764 mmHg 76%
    05:00 +20°C° 0 mm 2 mps 764 mmHg 73%
    06:00 +21°C° 0 mm 2 mps 765 mmHg 70%
    07:00 +23°C° 0 mm 2 mps 764 mmHg 64%
    08:00 +25°C° 0 mm 3 mps 764 mmHg 59%
    09:00 +26°C° 0 mm 3 mps 764 mmHg 53%
    10:00 +27°C° 0 mm 3 mps 764 mmHg 52%
    11:00 +27°C° 0 mm 4 mps 763 mmHg 50%
    12:00 +28°C° 0 mm 4 mps 763 mmHg 49%
    13:00 +28°C° 0 mm 5 mps 762 mmHg 50%
    14:00 +27°C° 0 mm 5 mps 762 mmHg 52%
    15:00 +27°C° 0 mm 6 mps 761 mmHg 53%
    16:00 +26°C° 0 mm 6 mps 761 mmHg 57%
    17:00 +25°C° 0 mm 5 mps 761 mmHg 61%
    18:00 +23°C° 0 mm 5 mps 761 mmHg 65%
    19:00 +22°C° 0 mm 5 mps 761 mmHg 68%
    20:00 +22°C° 0 mm 4 mps 761 mmHg 72%
    21:00 +21°C° 0 mm 3 mps 761 mmHg 75%
    22:00 +21°C° 0 mm 3 mps 761 mmHg 76%
    23:00 +21°C° 0 mm 3 mps 761 mmHg 76%

    29 May, Friday

    Time Temperature Precipitation Wind Pressure Humidity
    00:00 +21°C° 0 mm 3 mps 760 mmHg 76%
    01:00 +21°C° 0 mm 3 mps 760 mmHg 77%
    02:00 +20°C° 0 mm 3 mps 759 mmHg 79%
    03:00 +20°C° 0 mm 3 mps 759 mmHg 80%
    04:00 +21°C° 0 mm 3 mps 759 mmHg 78%
    05:00 +21°C° 0 mm 3 mps 759 mmHg 76%
    06:00 +22°C° 0 mm 3 mps 759 mmHg 74%
    07:00 +24°C° 0 mm 3 mps 759 mmHg 69%
    08:00 +25°C° 0 mm 4 mps 759 mmHg 64%
    09:00 +26°C° 0 mm 4 mps 759 mmHg 58%
    10:00 +27°C° 0 mm 4 mps 758 mmHg 56%
    11:00 +27°C° 0 mm 5 mps 758 mmHg 54%
    12:00 +28°C° 0 mm 5 mps 758 mmHg 52%
    13:00 +28°C° 0 mm 5 mps 757 mmHg 54%
    14:00 +27°C° 0 mm 5 mps 756 mmHg 56%
    15:00 +27°C° 0 mm 5 mps 756 mmHg 57%
    16:00 +26°C° 0.3 mm 5 mps 756 mmHg 62%
    17:00 +25°C° 0.3 mm 4 mps 756 mmHg 67%
    18:00 +25°C° 0.3 mm 4 mps 756 mmHg 72%
    19:00 +23°C° 0.1 mm 4 mps 756 mmHg 73%
    20:00 +22°C° 0.1 mm 4 mps 755 mmHg 75%
    21:00 +22°C° 0.1 mm 5 mps 755 mmHg 76%
    22:00 +22°C° 0 mm 3 mps 755 mmHg 78%
    23:00 +21°C° 0 mm 2 mps 755 mmHg 79%

    30 May, Saturday

    Time Temperature Precipitation Wind Pressure Humidity
    00:00 +22°C° 0 mm 1 mps 755 mmHg 81%
    01:00 +22°C° 0 mm 1 mps 755 mmHg 81%
    02:00 +22°C° 0 mm 1 mps 755 mmHg 81%
    03:00 +22°C° 0 mm 1 mps 755 mmHg 81%
    04:00 +21°C° 0 mm 2 mps 755 mmHg 79%
    05:00 +22°C° 0 mm 3 mps 755 mmHg 78%
    06:00 +22°C° 0 mm 3 mps 756 mmHg 77%
    07:00 +25°C° 0 mm 4 mps 756 mmHg 70%
    08:00 +27°C° 0 mm 4 mps 757 mmHg 63%
    09:00 +28°C° 0 mm 4 mps 757 mmHg 56%
    10:00 +29°C° 0 mm 5 mps 757 mmHg 54%
    11:00 +30°C° 0 mm 6 mps 758 mmHg 52%
    12:00 +30°C° 0 mm 6 mps 758 mmHg 49%
    13:00 +30°C° 0 mm 7 mps 758 mmHg 51%
    14:00 +31°C° 0 mm 8 mps 758 mmHg 52%
    15:00 +29°C° 0 mm 9 mps 758 mmHg 53%
    16:00 +28°C° 0 mm 8 mps 759 mmHg 57%
    17:00 +27°C° 0 mm 7 mps 759 mmHg 61%
    18:00 +24°C° 0 mm 7 mps 760 mmHg 64%
    19:00 +23°C° 0 mm 6 mps 760 mmHg 66%
    20:00 +23°C° 0 mm 5 mps 761 mmHg 67%
    21:00 +22°C° 0 mm 4 mps 762 mmHg 69%
    22:00 +22°C° 0 mm 4 mps 762 mmHg 69%
    23:00 +22°C° 0 mm 4 mps 763 mmHg 68%

    31 May, Sunday

    Time Temperature Precipitation Wind Pressure Humidity
    00:00 +21°C° 0 mm 4 mps 763 mmHg 68%
    01:00 +21°C° 0 mm 4 mps 764 mmHg 68%
    02:00 +21°C° 0 mm 4 mps 764 mmHg 69%
    03:00 +21°C° 0 mm 4 mps 764 mmHg 69%
    04:00 +21°C° 0 mm 4 mps 764 mmHg 67%
    05:00 +22°C° 0 mm 4 mps 764 mmHg 66%
    06:00 +22°C° 0 mm 4 mps 765 mmHg 64%
    07:00 +24°C° 0 mm 3 mps 765 mmHg 59%
    08:00 +26°C° 0 mm 3 mps 765 mmHg 54%
    09:00 +27°C° 0 mm 3 mps 765 mmHg 49%
    10:00 +27°C° 0 mm 3 mps 764 mmHg 47%
    11:00 +28°C° 0 mm 3 mps 764 mmHg 46%
    12:00 +28°C° 0 mm 4 mps 764 mmHg 45%
    13:00 +28°C° 0 mm 4 mps 763 mmHg 45%
    14:00 +28°C° 0 mm 4 mps 763 mmHg 45%
    15:00 +28°C° 0 mm 4 mps 763 mmHg 45%
    16:00 +27°C° 0 mm 4 mps 762 mmHg 47%
    17:00 +26°C° 0 mm 4 mps 762 mmHg 49%
    18:00 +25°C° 0 mm 3 mps 762 mmHg 52%
    19:00 +25°C° 0 mm 3 mps 762 mmHg 56%
    20:00 +24°C° 0 mm 3 mps 762 mmHg 60%
    21:00 +23°C° 0 mm 2 mps 762 mmHg 64%
    22:00 +23°C° 0 mm 2 mps 762 mmHg 65%
    23:00 +21°C° 0 mm 2 mps 762 mmHg 66%
    Show more